Regional Weather Roundup
Issued by NWS

Home | Current Version | Previous Version | Text Only | Print | Product List | Glossary Off
Versions: 1 2 3 4 5 6 7 8 9 10 11 12 13 14 15 16 17 18 19 20 21 22 23 24 25 26 27 28 29 30 31 32 33 34 35 36 37 38 39 40 41 42 43 44 45 46 47 48 49 50

000
ASUS43 KMKX 022021
RWRWI

WISCONSIN REGIONAL WEATHER ROUNDUP
NATIONAL WEATHER SERVICE MILWAUKEE/SULLIVAN WI
300 PM CDT TUE SEP 02 2014

NOTE: "FAIR" INDICATES FEW OR NO CLOUDS BELOW 12,000 FEET WITH NO
SIGNIFICANT WEATHER AND/OR OBSTRUCTIONS TO VISIBILITY.

WIZ001-002-006>008-014>016-023>028-022100-
NORTHWEST WISCONSIN

CITY           SKY/WX    TMP DP  RH WIND       PRES   REMARKS
SUPERIOR ARPT  PTSUNNY   74  53  47 SW10      29.81S
ASHLAND        MOSUNNY   74  54  49 SW10G18   29.84S
HAYWARD        SUNNY     74  51  44 VRB7      29.87S
SIREN          MOSUNNY   76  50  40 W10       29.88S
RICE LAKE      MOSUNNY   74  51  44 W10G17    29.90S
LADYSMITH      SUNNY     73  52  46 W7        29.90S
EAU CLAIRE     SUNNY     76  55  48 W8        29.88S
MENOMONIE      PTCLDY    77  50  39 W9        29.89S
NEW RICHMOND   SUNNY     75  49  39 W8        29.89F
OSCEOLA        SUNNY     76  54  46 W8        29.91F
$$

WIZ003>005-009-010-017-018-022100-
NORTH CENTRAL WISCONSIN

CITY           SKY/WX    TMP DP  RH WIND       PRES   REMARKS
WOODRUFF       MOSUNNY   74  47  39 W8        29.88S
RHINELANDER    MOSUNNY   72  50  45 NW8       29.88F
EAGLE RIVER    MOSUNNY   73  46  38 W10       29.87S
LAND O LAKES   MOSUNNY   71  45  39 W5        29.87S
PHILLIPS       MOSUNNY   73  51  45 SW8       29.88R
TOMAHAWK       MOSUNNY   73  50  44 W7        29.89S
MEDFORD        MOSUNNY   71  53  54 W9        29.90S
MERRILL        MOSUNNY   75  53  46 W7        29.88S
$$

WIZ029-030-035-036-043>047-022100-
CENTRAL WISCONSIN

CITY           SKY/WX    TMP DP  RH WIND       PRES   REMARKS
WAUSAU         SUNNY     75  54  47 W14       29.87F
MOSINEE        MOSUNNY   73  57  56 W13       29.89F
MARSHFIELD     PTSUNNY   73  57  57 W10       29.89S
STEVENS POINT  MOSUNNY   73  57  55 SW13      29.89S
WAUPACA        MOSUNNY   78  58  50 SW9       29.88F
WAUTOMA        LGT RAIN  78  57  48 NW10      29.89F
WISC RAPIDS    MOSUNNY   77  57  50 W10       29.91S
CAMP DOUGLAS   MOSUNNY   77  57  50 W12       29.91R
$$

WIZ011>013-019>022-031-037>040-048>050-022100-
NORTHEAST WISCONSIN

CITY           SKY/WX    TMP DP  RH WIND       PRES   REMARKS
ANTIGO         SUNNY     73  55  52 NW13G18   29.88F
STURGEON BAY   MOSUNNY   73  59  60 SW14      29.87S
GREEN BAY      MOSUNNY   76  60  57 W15       29.87S
MANITOWOC      MOSUNNY   77  59  53 W9G18     29.87F
APPLETON       PTSUNNY   75  57  53 W9        29.89S
CLINTONVILLE   MOSUNNY   73  55  53 W8G17     29.87S
OSHKOSH        MOSUNNY   75  60  59 W6        29.88S
$$

WIZ032>034-041-042-053>061-022100-
SOUTHWEST WISCONSIN

CITY           SKY/WX    TMP DP  RH WIND       PRES   REMARKS
LA CROSSE      PTSUNNY   80  57  45 W10       29.90S HX  80
SPARTA         MOSUNNY   76  55  47 NW7       29.91S
VIROQUA        FAIR      75  56  50 W7        29.93F
BOSCOBEL       SUNNY     81  56  42 VRB7      29.92R HX  81
PRAIRIE DU CHI MOSUNNY   78  51  40 SW9       29.92S
PLATTEVILLE    FAIR      76  58  52 W3G16     29.94S
$$

WIZ056-057-062-063-064-067-068-022100-
SOUTH CENTRAL WISCONSIN

CITY           SKY/WX    TMP DP  RH WIND       PRES   REMARKS
BARABOO/DELLS  SUNNY     79  50  35 W8        29.91S
LONE ROCK      SUNNY     82  55  39 W10       29.91S HX  81
WATERTOWN      MOSUNNY   77  59  54 W7        29.90F
MADISON        MOSUNNY   77  57  50 NW8       29.91S
MIDDLETON      FAIR      78  55  45 W10       29.92S
MONROE         PTSUNNY   77  54  44 W18G24    29.93S
JANESVILLE     PTSUNNY   79  57  47 W12       29.91R HX  80
$$

WIZ051-052-058>065-066-070>072-022100-
SOUTHEAST WISCONSIN

CITY           SKY/WX    TMP DP  RH WIND       PRES   REMARKS
MILWAUKEE      PTSUNNY   78  58  49 SW9       29.90S
WAUKESHA       PTSUNNY   72  61  68 W8        29.92S
MILWAUKEE/TIMM PTSUNNY   75  59  57 W7        29.90S
RACINE         MOSUNNY   80  57  45 VRB6      29.91S HX  80
BURLINGTON     SUNNY     77  56  48 W8        29.91F
KENOSHA        MOSUNNY   79  59  50 W10       29.91S HX  80
FOND DU LAC    PTSUNNY   76  59  55 W10       29.89S
SHEBOYGAN      MOSUNNY   77  61  57 W5        29.88F
WEST BEND      MOSUNNY   73  59  60 W5        29.90F
JUNEAU         PTSUNNY   76  61  59 W8        29.91S
$$

LSZ147-162-022100-
LAKE SUPERIOR

STATION/POSITION TIME  TEMP    WIND        PRES    WAVE
                       AIR SEA DIR/SP/G            HT/PER
                 (UTC) (F)     (DEG/KT/KT) (MB)    (FT/S)
W MID LAKE BUOY  1950   61 58  210/  8/ 10 1008.8R   2/ 4
DEVILS ISLAND    2000   67     240/ 12/ 14 1009.0F
PORT WING        1940   74     260/ 10/ 17 1009.8S
SAXON HARBOR     1940   75     200/  4/ 14 1010.2S
$$

LMZ867-665-643>646-022100-
LAKE MICHIGAN

STATION/POSITION TIME  TEMP    WIND        PRES    WAVE
                       AIR SEA DIR/SP/G            HT/PER
                 (UTC) (F)     (DEG/KT/KT) (MB)    (FT/S)
N MID LAKE BUOY  1950   65 65  220/ 10/ 12 1010.3F   1/ 5
NORTHPORT PIER   1900   72     250/  7/ 13 1010.2F
KEWAUNEE LAKESHO 2000   61     180/  9/ 11 1010.8F
SHEBOYGAN LAKESH 2000   74 51  250/  7/  9 1011.9F
ATWATER BUOY     2000   71     100/  8/  8 1013.4S
MILWAUKEE LAKESH 2000   69     110/  7/  9   N/A
S MID LAKE BUOY  1950   72 73  190/  4/  6 1012.8R   0
KENOSHA   LAKESH 2000   78     290/ 10/ 13 1011.9F
$$

TC  - TEMPERATURE IN CELSIUS
VSB - VISIBILITY IN STATUTE MILES
WCI - WIND CHILL INDEX
HX  - HEAT INDEX



USA.gov is the U.S. government's official web portal to all federal, state and local government web resources and services.